Wind_Speed
4 3 3 2 2 1 1 1 1 1 1 1 1 1 2 2 3 3 2 2 1 1 1 2 3 4 3 4 3 4 4 4 4 4 5 5 6 6 7 8 7 7 6
3 3 3 3 3 3 2 2 2 1 1 1 2 2 1 2 2 2 2 2 2 2 2 2 3 3 3 3 4 4 4 4 4 4 4 5 6 6 6 7 8 8 7
3 3 3 3 3 3 3 3 2 2 1 1 2 2 2 1 1 2 1 2 2 2 3 3 3 3 3 3 4 4 4 4 4 4 4 4 6 7 6 6 7 8 8
3 3 3 3 2 2 2 3 3 2 2 2 2 2 2 1 1 1 1 1 1 2 3 3 3 3 3 3 4 4 3 4 4 4 4 4 5 6 7 7 7 7 8
3 3 3 2 2 2 2 2 2 2 2 2 1 2 2 2 1 1 1 1 1 2 2 2 2 3 3 2 3 3 3 4 4 4 4 5 5 6 7 7 8 8 8
3 3 3 2 2 2 2 3 3 3 3 2 2 2 2 1 1 2 1 1 1 1 2 2 2 3 3 3 3 3 3 3 4 4 5 5 5 6 7 7 7 7 8
4 3 3 2 2 2 2 2 3 3 4 3 3 2 2 2 2 2 2 2 2 1 1 2 2 2 2 2 3 3 3 4 4 5 5 6 6 7 7 7 8 8 8
4 4 3 3 3 2 2 3 3 4 3 4 3 2 2 2 3 2 2 2 2 1 1 2 2 2 3 4 3 3 4 5 6 6 6 6 7 7 8 8 8 9 9
5 5 3 3 3 3 3 4 3 3 3 3 2 2 2 3 3 3 2 1 0 1 2 2 2 3 4 4 5 5 6 6 6 6 7 7 7 8 8 9 9 10 10
5 5 4 4 4 4 4 4 4 4 4 3 3 4 4 3 3 3 2 2 2 2 3 3 4 5 5 6 6 6 6 7 7 7 7 8 8 8 9 9 10 10 11
6 6 5 5 4 4 5 5 4 4 4 5 4 4 4 3 3 3 3 3 3 3 4 4 5 5 5 6 7 7 6 7 8 8 8 9 9 9 9 10 11 11 11
7 7 6 6 5 4 5 5 5 5 5 5 5 4 4 3 3 4 4 5 5 5 5 5 6 7 7 7 7 7 7 8 8 9 10 10 10 10 11 11 11 12 12
7 7 6 6 5 5 5 5 5 5 5 5 5 5 4 4 4 5 5 5 6 6 6 7 7 8 8 8 8 8 9 9 9 10 10 11 12 12 12 12 12 13 14
8 7 7 7 7 6 6 6 6 6 6 6 5 5 4 5 5 5 6 6 6 7 7 8 9 9 9 8 8 9 10 10 11 12 12 12 12 12 13 13 14 15 15
8 8 8 8 7 6 6 6 7 6 6 6 6 6 6 6 6 6 7 7 7 7 8 8 9 10 10 9 9 10 11 12 12 12 12 12 13 13 13 14 15 15 16
9 9 9 8 7 7 7 7 7 7 7 7 7 7 7 8 8 9 9 9 9 9 9 10 10 10 11 12 12 12 12 12 12 13 13 13 13 14 14 15 15 16 17
10 10 10 9 8 7 7 8 8 8 8 8 9 9 9 9 10 10 10 10 10 11 10 11 11 11 12 13 14 14 12 12 13 14 14 14 15 15 16 16 16 16 17
11 10 10 10 8 8 8 8 8 8 9 9 10 10 10 11 11 11 11 12 12 12 12 12 13 13 13 13 13 14 14 14 14 14 14 15 16 17 16 17 17 17 18
11 11 11 11 11 10 9 10 9 9 10 10 10 11 11 11 12 12 12 13 14 13 13 13 13 14 14 15 15 15 15 15 15 15 16 16 17 18 18 17 18 18 19
12 12 12 12 12 12 11 11 11 11 11 12 12 11 11 12 13 13 13 14 15 15 14 15 15 15 15 16 16 16 16 16 16 17 17 18 18 18 18 19 19 20 20
14 14 14 14 13 13 14 14 13 13 13 13 13 13 13 14 14 14 14 15 15 16 16 16 16 16 16 16 17 17 17 17 18 17 18 19 20 20 20 20 21 21 21
16 16 16 15 15 15 15 16 15 15 15 15 14 15 15 15 16 16 16 16 17 17 18 18 17 17 18 17 17 18 18 19 19 19 20 20 20 20 21 21 21 22 22
18 18 17 18 17 17 17 17 17 17 17 16 16 16 17 17 18 17 18 18 19 19 19 19 18 18 19 19 19 19 20 20 20 20 21 20 20 21 22 22 22 23 23
21 20 20 20 20 19 19 19 18 19 19 19 19 18 19 19 19 19 20 20 20 20 21 20 19 20 20 20 20 20 21 21 22 22 21 21 21 22 22 22 23 23 24
22 22 22 22 21 21 21 20 20 21 21 21 21 21 22 22 21 21 21 21 21 21 21 21 21 21 21 20 21 21 21 22 22 22 23 23 23 23 23 24 24 24 25
24 24 24 23 23 22 22 22 23 22 23 23 23 24 24 23 23 23 23 23 23 22 22 23 23 22 21 21 21 22 22 22 22 22 23 25 25 25 26 26 25 25 25
Wind_Direction
41 37 37 68 67 60 34 3 359 12 355 335 346 329 290 314 311 302 299 309 280 278 191 192 196 194 206 221 217 215 219 230 234 228 234 237 235 245 250 252 257 254 256
50 51 54 65 62 57 46 23 13 17 353 349 6 14 337 329 322 323 303 287 277 248 223 227 217 212 206 215 231 226 228 234 227 235 242 240 240 244 252 256 253 251 258
45 51 62 67 60 53 43 29 24 25 19 1 5 5 13 9 345 347 330 301 265 239 241 226 223 212 220 221 236 238 240 239 241 250 256 256 246 244 246 256 258 256 256
48 46 59 61 56 46 36 18 19 23 11 349 355 360 7 24 359 0 329 299 292 267 247 227 232 218 226 236 237 232 236 245 246 253 254 257 257 250 252 257 259 259 261
43 39 46 43 36 28 17 1 9 358 340 338 343 339 335 341 336 354 293 274 281 272 257 252 233 224 231 238 234 239 251 247 251 249 258 267 265 260 260 260 261 260 262
26 22 22 25 23 14 4 2 350 341 331 331 330 325 325 324 328 341 328 269 253 242 248 227 214 223 232 243 238 243 257 264 258 263 263 269 273 274 273 269 264 267 270
16 7 12 3 358 341 338 329 324 323 323 319 329 330 319 299 291 295 312 280 241 224 224 219 216 228 230 237 249 252 257 264 264 268 267 271 276 280 275 271 270 272 275
8 5 360 1 346 329 319 317 311 312 315 316 313 308 313 301 315 313 304 285 248 249 213 205 228 238 246 257 263 262 256 257 257 263 269 274 275 274 271 272 273 275 278
2 353 330 331 325 321 320 320 322 311 312 319 309 309 307 315 320 318 314 296 262 231 209 212 231 243 254 268 273 273 266 264 258 263 272 276 275 275 276 275 276 276 278
354 343 331 321 322 322 317 313 307 305 310 309 301 297 296 309 317 314 303 295 286 267 266 257 257 257 260 268 269 273 269 266 262 267 272 276 275 278 278 276 277 278 279
340 333 333 325 316 307 303 300 299 305 300 298 296 295 296 300 297 290 284 293 289 283 286 288 284 280 272 266 266 268 268 267 265 267 271 274 278 280 279 278 278 278 280
326 320 318 314 305 293 288 291 297 291 289 291 285 290 292 278 281 285 286 285 284 285 289 291 289 287 284 280 274 270 270 270 270 270 271 275 279 280 280 280 281 280 281
326 321 311 309 301 288 279 278 281 279 281 281 283 283 284 275 282 280 284 285 285 285 287 288 291 290 285 284 280 276 277 275 274 275 276 278 281 281 281 283 284 283 283
327 321 312 306 302 290 279 271 275 279 276 277 283 283 287 280 279 280 282 289 290 288 288 286 287 289 285 281 279 278 279 282 284 282 280 281 283 282 283 283 283 283 284
327 318 310 308 305 295 286 280 280 279 274 280 285 279 276 274 280 281 283 286 292 291 287 281 283 286 285 281 279 280 281 284 284 286 284 285 285 284 284 285 286 286 286
322 323 318 311 304 297 290 288 286 276 280 280 282 282 278 276 278 283 286 283 285 291 292 288 286 287 287 281 278 279 282 285 288 286 286 288 290 288 288 289 289 289 289
314 315 312 308 299 294 290 287 284 280 281 284 282 278 278 281 280 282 285 286 286 288 289 290 291 292 291 287 281 279 282 284 286 284 284 287 289 291 292 293 292 290 290
310 311 308 305 296 293 289 285 283 283 282 286 284 280 279 282 280 280 283 286 287 286 285 286 289 288 288 289 286 285 283 284 283 283 283 286 289 290 293 296 296 294 293
303 305 306 305 300 297 293 289 285 286 286 286 284 282 283 282 284 282 283 284 285 286 284 284 285 287 286 285 285 287 286 285 285 284 285 288 289 291 291 294 295 295 295
295 296 297 297 297 288 291 289 285 285 291 291 288 285 286 286 285 282 281 284 285 285 284 284 283 284 285 284 284 285 285 285 284 285 286 287 289 290 290 291 293 294 293
291 291 291 294 294 287 283 286 283 282 286 288 287 286 287 288 287 282 282 284 285 284 283 283 282 282 283 283 281 282 281 282 284 285 287 287 286 288 290 291 291 292 291
288 287 286 285 285 284 284 286 286 285 285 285 285 284 284 285 284 281 282 283 285 284 284 284 283 281 280 280 279 278 279 281 283 284 284 285 287 287 289 290 290 290 291
285 284 284 282 281 282 284 287 282 281 280 281 283 284 285 285 283 282 283 284 284 285 285 284 283 283 281 280 278 278 279 280 282 283 283 284 286 288 289 289 289 290 290
282 280 280 280 281 282 282 284 283 279 280 280 280 282 284 284 281 280 282 283 283 284 284 282 282 283 282 281 280 280 279 279 281 281 282 283 285 287 289 290 290 289 289
283 279 277 277 279 278 278 281 281 279 279 280 278 278 280 281 281 279 281 283 285 285 282 280 281 282 281 280 280 280 280 280 279 279 280 282 285 287 288 289 288 288 290
284 282 276 276 277 276 277 278 278 279 280 281 281 279 278 280 280 282 282 282 283 284 282 280 280 280 279 280 283 283 281 279 279 279 281 282 284 286 286 288 288 288 288
Height
5888 5887 5887 5887 5887 5886 5886 5886 5885 5885 5884 5884 5884 5883 5882 5882 5881 5881 5880 5879 5879 5878 5878 5878 5878 5878 5878 5878 5879 5879 5879 5879 5879 5879 5879 5879 5879 5880 5880 5880 5880 5880 5880
5888 5887 5887 5887 5887 5886 5885 5885 5885 5884 5884 5883 5883 5882 5882 5881 5881 5880 5879 5879 5878 5878 5878 5878 5877 5877 5878 5878 5878 5878 5878 5878 5878 5878 5878 5878 5878 5878 5878 5878 5878 5878 5878
5888 5887 5887 5887 5887 5886 5886 5885 5884 5884 5883 5883 5883 5882 5881 5881 5880 5879 5879 5878 5878 5877 5877 5877 5877 5877 5877 5877 5877 5877 5877 5877 5877 5877 5877 5877 5876 5877 5877 5877 5876 5876 5876
5887 5887 5887 5887 5886 5886 5886 5885 5884 5884 5883 5882 5882 5882 5881 5880 5879 5879 5878 5878 5877 5877 5876 5876 5876 5876 5876 5876 5876 5876 5876 5876 5876 5876 5876 5875 5875 5875 5875 5875 5875 5875 5875
5887 5887 5887 5886 5886 5886 5885 5885 5884 5883 5883 5882 5882 5881 5881 5880 5879 5878 5877 5877 5876 5876 5876 5876 5875 5875 5875 5875 5875 5875 5875 5875 5875 5874 5874 5874 5874 5874 5874 5873 5873 5873 5872
5887 5886 5886 5886 5885 5885 5884 5884 5884 5883 5882 5882 5881 5881 5880 5880 5879 5878 5877 5876 5876 5876 5875 5875 5875 5875 5874 5874 5874 5874 5874 5874 5873 5873 5873 5873 5873 5872 5872 5871 5871 5871 5870
5886 5886 5885 5885 5884 5884 5883 5883 5883 5882 5882 5881 5880 5880 5879 5879 5878 5877 5877 5876 5876 5875 5875 5874 5874 5873 5873 5873 5873 5873 5873 5873 5872 5872 5872 5871 5871 5870 5870 5869 5869 5869 5868
5886 5885 5884 5884 5883 5883 5883 5882 5881 5881 5880 5880 5880 5879 5878 5879 5878 5877 5876 5876 5875 5874 5874 5873 5873 5872 5872 5872 5872 5871 5871 5871 5871 5870 5870 5869 5869 5868 5868 5867 5867 5866 5865
5885 5884 5884 5883 5882 5882 5882 5881 5881 5880 5879 5879 5879 5879 5878 5877 5877 5876 5876 5875 5874 5873 5873 5872 5872 5871 5871 5871 5870 5870 5870 5870 5869 5869 5868 5867 5867 5866 5865 5865 5864 5863 5863
5885 5884 5883 5882 5881 5880 5880 5880 5879 5878 5878 5878 5877 5877 5877 5877 5876 5876 5875 5874 5873 5872 5872 5871 5871 5870 5870 5869 5868 5868 5868 5867 5867 5866 5866 5865 5864 5863 5863 5862 5861 5861 5860
5884 5883 5881 5880 5879 5879 5878 5878 5878 5877 5877 5876 5876 5876 5875 5875 5874 5874 5874 5873 5872 5871 5870 5869 5869 5868 5867 5867 5866 5866 5865 5865 5864 5864 5863 5863 5862 5861 5860 5859 5858 5858 5857
5883 5881 5880 5879 5878 5877 5877 5876 5876 5876 5875 5875 5874 5874 5874 5873 5873 5872 5872 5871 5870 5870 5868 5868 5867 5866 5865 5864 5864 5863 5863 5862 5862 5861 5860 5860 5859 5858 5857 5856 5855 5854 5853
5881 5880 5878 5877 5876 5875 5875 5874 5874 5874 5873 5873 5872 5872 5872 5871 5871 5871 5870 5869 5868 5867 5866 5866 5864 5864 5863 5862 5862 5861 5860 5859 5858 5858 5857 5856 5855 5854 5853 5853 5852 5851 5849
5880 5878 5877 5876 5875 5874 5873 5872 5872 5871 5871 5871 5870 5870 5869 5869 5869 5868 5868 5867 5865 5864 5864 5863 5862 5861 5860 5859 5859 5858 5857 5856 5855 5854 5853 5852 5851 5850 5849 5848 5847 5846 5845
5879 5877 5875 5874 5873 5872 5871 5871 5870 5869 5869 5869 5868 5868 5867 5867 5866 5866 5865 5864 5863 5862 5861 5860 5859 5858 5857 5856 5855 5855 5854 5853 5852 5850 5849 5849 5848 5846 5845 5844 5843 5842 5841
5877 5875 5874 5872 5871 5870 5869 5869 5868 5867 5867 5866 5866 5865 5865 5864 5863 5863 5862 5861 5860 5859 5858 5857 5856 5855 5853 5853 5852 5851 5850 5849 5848 5847 5846 5845 5844 5843 5842 5840 5838 5837 5836
5875 5873 5871 5870 5869 5868 5867 5866 5865 5865 5864 5863 5863 5862 5861 5861 5860 5859 5858 5857 5857 5856 5855 5854 5852 5851 5850 5849 5848 5847 5846 5845 5844 5843 5842 5841 5840 5838 5837 5836 5834 5833 5831
5872 5870 5869 5867 5866 5865 5864 5863 5862 5862 5861 5860 5859 5859 5858 5857 5856 5856 5855 5854 5853 5852 5851 5850 5848 5847 5846 5845 5843 5843 5842 5841 5840 5838 5837 5836 5835 5834 5832 5831 5829 5828 5826
5869 5868 5866 5865 5863 5862 5861 5860 5859 5858 5857 5856 5856 5855 5854 5853 5853 5852 5851 5850 5849 5848 5847 5846 5845 5843 5842 5841 5839 5838 5837 5836 5835 5833 5832 5831 5830 5829 5827 5826 5824 5823 5821
5866 5864 5863 5861 5860 5858 5857 5857 5856 5855 5854 5853 5852 5851 5850 5849 5848 5847 5847 5846 5845 5844 5842 5841 5840 5838 5837 5836 5835 5834 5833 5831 5830 5828 5827 5826 5825 5823 5822 5821 5819 5817 5815
5863 5861 5859 5858 5856 5855 5854 5853 5851 5851 5850 5849 5848 5847 5846 5845 5844 5843 5842 5841 5840 5839 5837 5836 5835 5833 5832 5830 5829 5828 5827 5826 5824 5823 5822 5820 5819 5818 5816 5815 5813 5811 5810
5858 5857 5855 5854 5852 5851 5850 5849 5847 5846 5845 5844 5844 5843 5841 5840 5839 5838 5837 5836 5835 5833 5832 5830 5829 5827 5826 5824 5823 5822 5821 5820 5819 5818 5816 5815 5813 5812 5810 5809 5807 5805 5804
5853 5852 5850 5849 5847 5846 5845 5844 5842 5841 5840 5839 5838 5837 5836 5835 5833 5832 5831 5830 5828 5827 5826 5824 5822 5821 5820 5818 5817 5816 5815 5814 5813 5811 5810 5808 5806 5805 5804 5802 5801 5799 5797
5847 5846 5844 5843 5842 5841 5840 5838 5837 5835 5834 5833 5832 5831 5830 5828 5827 5826 5825 5824 5822 5820 5819 5817 5816 5815 5813 5811 5810 5809 5808 5807 5806 5804 5803 5802 5800 5799 5797 5796 5794 5792 5791
5840 5839 5838 5836 5835 5834 5833 5832 5830 5829 5828 5827 5826 5825 5823 5822 5821 5819 5818 5817 5815 5814 5812 5810 5809 5808 5806 5805 5804 5803 5802 5800 5799 5797 5796 5795 5794 5792 5791 5789 5787 5785 5784
5833 5831 5830 5829 5828 5827 5826 5825 5823 5822 5821 5819 5818 5817 5816 5815 5813 5812 5811 5809 5808 5807 5805 5803 5802 5801 5800 5798 5797 5796 5794 5793 5792 5791 5789 5788 5786 5784 5784 5782 5780 5778 5776